Weather History for Buffalo, SD

Change the Weather History Date:

Wednesday, November 23, 2011

  Actual Average Record
Temperature  
Mean Temperature 49 °F 28 °F  
Max Temperature 61 °F 38 °F 61 °F (2011)
Min Temperature 36 °F 17 °F -8 °F (2010)
Degree Days  
Heating Degree Days 16 37  
Month to date heating degree days 766 723  
Since 1 July heating degree days 1438 1624  
Cooling Degree Days 0 0  
Month to date cooling degree days 0 0  
Year to date cooling degree days 554 513  
Moisture  
Dew Point 27 °F    
Average Humidity 46    
Maximum Humidity 64    
Minimum Humidity 27    
Precipitation  
Precipitation 0.00 in 0.00 in 0.02 in (2006)
Month to date precipitation 0.19 0.30  
Year to date precipitation 18.43 14.22  
Sea Level Pressure  
Sea Level Pressure 29.84 in    
Wind  
Wind Speed 10 mph (SSW)    
Max Wind Speed 18 mph    
Max Gust Speed 22 mph    
T = Trace of Precipitation, MM = Missing Value Source: NWS Daily Summary

Daily Weather History Graph

Daily Weather History Graph

Search for Another Location

Airport:

Trip Planner

Search our weather history database for the weather conditions in past years. The results will help you decide how hot, cold, wet, or windy it might be!

Date:

Astronomy

Nov. 23, 2011 Rise Set
Actual Time 7:04 AM MST 4:16 PM MST
Civil Twilight 6:31 AM MST 4:49 PM MST
Nautical Twilight 5:54 AM MST 5:26 PM MST
Astronomical Twilight 5:19 AM MST 6:01 PM MST
Moon 5:09 AM MST (11/23) 3:01 PM MST (11/23)
Length of Visible Light 10h 18m
Length of Day
9h 12m
Waning Crescent, 3% of the Moon is Illuminated
Nov 23
Waning Crescent
Nov 24
New
Dec 2
First Quarter
Dec 10
Full
Dec 17
Last Quarter

Hourly Weather History & Observations

Time (MST) Temp. Windchill Dew Point Humidity Pressure Visibility Wind Dir Wind Speed Gust Speed Precip Events Conditions
12:56 AM 37.9 °F 30.9 °F 26.1 °F 62% 29.93 in - West 10.4 mph - N/A   Unknown
1:56 AM 37.9 °F 28.9 °F 26.1 °F 62% 29.95 in - WSW 16.1 mph - N/A   Unknown
2:56 AM 39.9 °F 32.1 °F 26.1 °F 58% 29.94 in - West 13.8 mph - N/A   Unknown
3:56 AM 39.9 °F 31.8 °F 27.0 °F 60% 29.94 in - WSW 15.0 mph - N/A   Unknown
4:56 AM 39.0 °F 30.6 °F 26.1 °F 60% 29.94 in - West 15.0 mph - N/A   Unknown
5:56 AM 37.9 °F 33.5 °F 26.1 °F 62% 29.94 in - SW 5.8 mph - N/A   Unknown
6:56 AM 39.9 °F 33.9 °F 26.1 °F 58% 29.94 in - SW 9.2 mph - N/A   Unknown
7:56 AM 41.0 °F 36.4 °F 26.1 °F 55% 29.93 in - SSW 6.9 mph - N/A   Unknown
8:56 AM 44.1 °F 40.1 °F 28.0 °F 53% 29.91 in - South 6.9 mph - N/A   Unknown
9:56 AM 51.1 °F - 28.0 °F 41% 29.90 in - SSW 11.5 mph 16.1 mph N/A   Unknown
10:56 AM 54.0 °F - 28.0 °F 37% 29.86 in - SSW 12.7 mph - N/A   Unknown
11:56 AM 57.0 °F - 28.0 °F 33% 29.82 in - SSW 16.1 mph - N/A   Unknown
12:56 PM 60.1 °F - 26.1 °F 27% 29.80 in - SW 12.7 mph 20.7 mph N/A   Unknown
1:56 PM 59.0 °F - 27.0 °F 29% 29.78 in - SW 15.0 mph - N/A   Unknown
2:56 PM 55.9 °F - 27.0 °F 33% 29.79 in - SSW 12.7 mph - N/A   Unknown
3:56 PM 52.0 °F - 28.9 °F 41% 29.78 in - SSW 10.4 mph - N/A   Unknown
4:56 PM 48.0 °F - 28.0 °F 46% 29.78 in - SSW 13.8 mph - N/A   Unknown
5:56 PM 46.0 °F 40.2 °F 28.0 °F 50% 29.79 in - SSW 12.7 mph - N/A   Unknown
6:56 PM 42.1 °F 36.6 °F 28.9 °F 60% 29.78 in - SSE 9.2 mph - N/A   Unknown
7:56 PM 39.9 °F 34.5 °F 28.0 °F 63% 29.76 in - SE 8.1 mph - N/A   Unknown
8:56 PM 39.0 °F 34.0 °F 28.0 °F 65% 29.75 in - SSE 6.9 mph - N/A   Unknown
9:56 PM 44.1 °F - 27.0 °F 51% 29.71 in - Calm Calm - N/A   Unknown
10:56 PM 48.0 °F - 26.1 °F 42% 29.69 in - South 6.9 mph - N/A   Unknown
11:56 PM 50.0 °F - 25.0 °F 38% 29.67 in - Calm Calm - N/A   Unknown